Regional Weather Roundup
Issued by NWS Charleston, SC

Current Version | Previous Version | Text Only | Print | Product List | Glossary Off
Versions: 1 2 3 4 5 6 7 8 9 10 11 12 13 14 15 16 17 18 19 20 21 22 23 24 25 26 27 28 29 30 31 32 33 34 35 36 37 38 39 40 41 42 43 44 45 46 47 48 49 50
000 ASUS42 KCHS 251510 RWRCHS REGIONAL WEATHER ROUNDUP NATIONAL WEATHER SERVICE CHARLESTON SC 1000 AM EST SUN JAN 25 2015 NOTE: "FAIR" INDICATES FEW OR NO CLOUDS BELOW 12,000 FEET WITH NO SIGNIFICANT WEATHER AND/OR OBSTRUCTIONS TO VISIBILITY. NOT ALL STATIONS ARE QUALITY CONTROLLED BY THE NATIONAL WEATHER SERVICE. USE DATA WITH CAUTION...ESPECIALLY DEWPOINT OBSERVATIONS. SCZ027-030-031-034>040-042>050-251600- ...SOUTHEAST SOUTH CAROLINA... CITY SKY/WX TMP DP RH WIND PRES REMARKS N CHARLESTON PTSUNNY 44 32 62 W5 30.02R WATERFRONT PRK N/A 46 N/A N/A NW5G10 N/A MOUNT PLEASANT LGT RAIN N/A N/A N/A NW3 30.01S PINOPOLIS NOT AVBL MONCKS CORNER FAIR 45 34 65 CALM 30.01S SUMMERVILLE FAIR 43 36 75 CALM 30.02S BEAUFORT MCAS MOSUNNY 48 34 58 NW3 30.02R BEAUFORT ARPT FAIR 48 36 61 NW5 30.02S HILTON HEAD IS MOSUNNY 46 34 61 W7 30.03R WALTERBORO MOSUNNY 43 32 65 W5 30.02S ALLENDALE FAIR 45 32 61 VRB5 30.01R ...SOUTHERN MIDLANDS AND PEE DEE... CITY SKY/WX TMP DP RH WIND PRES REMARKS GEORGETOWN NOT AVBL KINGSTREE NOT AVBL ORANGEBURG SUNNY 42 32 67 SW3 30.00S BARNWELL FAIR 45 34 65 SW5 30.01S AIKEN FAIR 43 32 65 SW9 30.01R MANNING NOT AVBL COLUMBIA MOSUNNY 42 33 70 CALM 29.98S SUMTER SUNNY 45 31 58 W6 29.97R FLORENCE SUNNY 43 34 70 CALM 29.98F MYRTLE BEACH SUNNY 45 32 61 W9 30.03F N MYRTLE BEACH MOSUNNY 44 34 67 W3 30.00F $$ GAZ063-065-086>088-099>101-113>116-118-119-134>141-150-251600- ...SOUTHEAST GEORGIA... CITY SKY/WX TMP DP RH WIND PRES REMARKS SAVANNAH ARPT PTSUNNY 47 33 58 W7 30.03S HUNTER AAF MOSUNNY 44 37 75 W7 30.02R FORT STEWART MOSUNNY 44 35 70 W5 30.03S STATESBORO SUNNY 47 35 62 W7 30.03R SYLVANIA SUNNY 46 36 68 W6 30.03R CLAXTON FAIR 46 37 71 W3 30.04R ...CSRA...CENTRAL AND FAR SOUTHEAST GEORGIA... CITY SKY/WX TMP DP RH WIND PRES REMARKS THOMSON SUNNY 46 36 67 SW5 30.03F AUGUSTA-BUSH SUNNY 44 31 60 W5 30.01R AUGUSTA-DANIEL SUNNY 46 31 55 VRB3 30.00R SWAINSBORO FAIR 46 28 49 W3 30.03R VIDALIA SUNNY 46 36 66 W6 30.04S EASTMAN FAIR 46 36 68 W3 30.05F HAZLEHURST FAIR 47 37 67 W5 30.03F ALMA SUNNY 45 36 70 CALM 30.05R WAYCROSS MOSUNNY 47 39 74 CALM 30.05S JESUP FAIR 46 41 81 CALM 30.06R BAXLEY FAIR 46 36 66 W3 30.04S BRUNSWICK PTSUNNY 46 36 66 W5 30.06S SAINT SIMONS PTSUNNY 49 33 54 W6 30.06R $$ SCZ027-028-034-036>038-045-046-048>050-GAZ119-141-251600- ...LAKE AND SUPPLEMENTAL COASTAL OBSERVATIONS... STATION/POSITION TIME TEMP WIND PRES WAVE SWELL AIR SEA DIR/SP/G HT/PER HT/PER/DIR (UTC) (F) (DEG/KT/KT) (MB) (FT/S) (FT/S/D) UPR LAKE MARION NOT AVBL WINYAH BAY 1400 42 270/ 6 1015.0S LAKE MURRAY 1400 42 210/ 5/ 7 1014.6R ACE BASIN NERRS NOT AVBL FORT PULASKI 1500 45 53 300/ 11/ 12 1017.1S SAPELO ISLAND 1400 44 290/ 6 1017.0S $$ ANZ835-935-AMZ111-154-330-350-352-354-370-450-454-472-251600- ...C-MAN AND BUOY OBSERVATIONS... STATION/POSITION TIME TEMP WIND PRES WAVE SWELL AIR SEA DIR/SP/G HT/PER HT/PER/DIR (UTC) (F) (DEG/KT/KT) (MB) (FT/S) (FT/S/D) BUOY 41004 1500 52 69 320/ 8/ 12 1015.8F 4/ 6 3/ 6 BUOY 41008 1500 47 55 310/ 10/ 12 1017.1F 2/ 4 FOLLY BEACH CMAN 1400 45 290/ 5/ 7 1016.5F CAPERS NEARSHORE 1400 46 320/ 10/ 12 N/A FRIPP NEARSHORE 1400 46 290/ 10/ 14 N/A STATION/POSITION TIME TEMP WIND PRES WAVE SWELL AIR SEA DIR/SP/G HT/PER HT/PER/DIR (UTC) (F) (DEG/KT/KT) (MB) (FT/S) (FT/S/D) 5E ST. MARYS GA 1500 58 N/A 1/ 3 FRYING PAN BUOY 1500 51 66 10/ 6/ 8 1016.6R 5/ 7 5/210/ 7 BUOY 41025 1500 48 70 340/ 14/ 17 1014.5R 5/10 3/170/10 CAPE LOOKOUT NC 1400 44 320/ 7/ 9 1014.9R BUOY 41002 1422 65 72 290/ 12/ 16 1015.5R 10/ 9 10/240/ 9 BUOY 41010 1500 65 76 330/ 8/ 16 1017.3R 5/ 8 ST AUGUSTINE FL 1500 49 320/ 3/ 4 1019.6R $$

USA.gov is the U.S. government's official web portal to all federal, state and local government web resources and services.